Location: Armstrong
(40.9123°N, 82.0110°W)
Time: 03:32:29
(UTC+00:00)

Cosmos 44 Rocket - Pass Details

Date: 29 October 2020
Orbit: 642 x 748 km, 65.1° (Epoch: 26 November)

Event Time Altitude Azimuth Distance (km) Brightness Sun altitude
Rises 23:05:54 0° 179° (S) 2,963 6.7 -7.9°
Reaches altitude 10° 23:08:27 10° 167° (SSE) 2,071 5.7 -8.4°
Maximum altitude 23:12:20 26° 111° (ESE) 1,320 4.3 -9.1°
Enters shadow 23:16:14 10° 56° (NE) 2,113 5.2 -9.9°
